Stations météo

Publicité
Berus, Allemagne (10704): Température de l'air & dewpoint: 21.11.2020 04:00:00 - 27.11.2020 04:00:00 (CET)Berus, Allemagne (10704): Température de l'air 5cm & Température de l'air -5cm: 21.11.2020 04:00:00 - 27.11.2020 04:00:00 (CET)Berus, Allemagne (10704): Température de l'air -20cm & Température de l'air -100cm: 21.11.2020 04:00:00 - 27.11.2020 04:00:00 (CET)Berus, Allemagne (10704): Vitesse du vent & gusts: 21.11.2020 04:00:00 - 27.11.2020 04:00:00 (CET)Berus, Allemagne (10704): Direction du vent: 21.11.2020 04:00:00 - 27.11.2020 04:00:00 (CET)Berus, Allemagne (10704): reduced air pressure: 21.11.2020 04:00:00 - 27.11.2020 04:00:00 (CET)Berus, Allemagne (10704): visibility: 21.11.2020 04:00:00 - 27.11.2020 04:00:00 (CET)Berus, Allemagne (10704): Ensoleillement: 21.11.2020 04:00:00 - 27.11.2020 04:00:00 (CET)Berus, Allemagne (10704): Quantités de précipitations: 21.11.2020 04:00:00 - 27.11.2020 04:00:00 (CET)
Date & Time tt [°C] td [°C] tt 5cm [°C] tt -5cm [°C] tt -20cm [°C] tt -100cm [°C] ff [km/h] ff [knt] fx [km/h] fx [knt] dd ppp [hPa] vv [km] sd [min] rr [mm]
27.11.2020 04:00:00 0,5 0,5 -0,1 1,8 4,5 9,9 9 5 12 7 ENE 1021,4 0,9 0 0,0
27.11.2020 03:00:00 0,6 0,6 -0,6 2,0 4,6 9,9 10 5 11 6 NE 1021,6 0,2 0 0,0
27.11.2020 02:00:00 0,8 0,8 -0,7 2,3 4,7 9,9 7 4 13 7 ENE 1021,6 0,3 0 0,0
27.11.2020 01:00:00 1,1 1,1 -0,1 2,6 4,8 9,9 9 5 10 6 NE 1022,0 1,1 0 0,0
27.11.2020 00:00:00 1,2 1,1 0,4 3,0 4,9 9,9 10 5 11 6 NE 1021,9 1,8 0 0,0
26.11.2020 23:00:00 1,5 1,2 0,8 3,4 4,9 9,9 8 4 16 9 E 1022,0 5 0 0,0
26.11.2020 22:00:00 1,7 1,6 1,5 3,5 5,0 9,9 8 4 11 6 NE 1022,1 3,4 0 0,0
26.11.2020 21:00:00 1,9 1,7 2,1 3,5 5,1 10,0 7 4 13 7 NE 1022,0 3,8 0 0,0
26.11.2020 20:00:00 2,4 2,0 2,4 3,4 5,1 10,0 10 5 16 9 NE 1021,9 10 0 0,0
26.11.2020 19:00:00 2,6 2,0 1,1 3,6 5,2 10,0 11 6 14 8 ENE 1021,9 14 0 0,0
26.11.2020 18:00:00 3,0 2,0 1,7 4,2 5,2 10,0 12 6 16 9 NE 1021,7 19 0 0,0
26.11.2020 17:00:00 3,5 2,4 2,5 4,6 5,1 10,0 11 6 15 8 NE 1021,7 17 0 0,0
26.11.2020 16:00:00 3,6 2,2 2,7 5,3 4,9 10,0 11 6 15 8 NE 1021,4 23 59 0,0
26.11.2020 15:00:00 3,6 2,4 7,2 5,9 4,7 10,0 8 4 10 5 ENE 1021,6 21 60 0,0
26.11.2020 14:00:00 2,8 2,3 6,7 5,3 4,5 10,0 8 4 14 8 E 1022,4 13 30 0,0
26.11.2020 13:00:00 1,1 1,1 3,1 3,9 4,3 10,0 11 6 18 10 ENE 1023,3 0,1 0 0,0
26.11.2020 12:00:00 0,2 0,2 2,5 3,1 4,3 10,0 11 6 16 8 NE 1023,8 0,1 0 0,0
26.11.2020 11:00:00 -0,5 -0,5 1,1 2,2 4,3 10,0 11 6 16 9 NE 1024,1 0,1 0 0,0
26.11.2020 10:00:00 -1,0 -1,0 -0,3 1,8 4,4 10,0 11 6 13 7 NE 1024,1 0,1 0 0,0
26.11.2020 09:00:00 -1,5 -1,7 -1,0 1,7 4,5 10,0 10 6 14 7 NE 1024,1 0,1 0 0,0
26.11.2020 08:00:00 -1,8 -2,0 -1,6 1,7 4,6 10,0 8 5 11 6 NE 1023,8 0,1 0 0,0
26.11.2020 07:00:00 -1,3 -1,6 -1,7 1,8 4,7 10,0 8 4 11 6 ENE 1023,5 0,2 0 0,0
26.11.2020 06:00:00 -0,8 -1,0 -1,6 1,8 4,8 10,0 8 5 14 7 NE 1023,7 0,5 0 0,0
26.11.2020 05:00:00 -0,5 -0,7 -1,3 1,9 5,0 10,1 10 5 14 8 ENE 1023,4 2,7 0 0,0
26.11.2020 04:00:00 0,0 -0,3 -0,3 1,9 5,2 10,1 9 5 15 8 E 1023,3 5 0 0,0
26.11.2020 03:00:00 0,4 0,1 -0,9 2,2 5,3 10,1 9 5 15 8 E 1023,3 3,6 0 0,0
26.11.2020 02:00:00 1,4 1,0 0,1 2,4 5,5 10,1 10 5 13 7 ESE 1022,7 5 0 0,0
26.11.2020 01:00:00 1,5 1,0 -0,3 2,6 5,7 10,1 8 4 10 5 ENE 1022,7 7 0 0,0
26.11.2020 00:00:00 2,4 1,3 -0,6 3,0 5,9 10,1 6 3 11 6 E 1022,5 14 0 0,0
25.11.2020 23:00:00 2,6 1,2 0,7 3,4 6,1 10,1 8 4 10 5 SE 1022,1 18 0 0,0
25.11.2020 22:00:00 2,9 1,4 0,7 3,8 6,3 10,1 7 4 10 6 SE 1021,8 23 0 0,0
25.11.2020 21:00:00 3,8 2,2 1,5 4,3 6,4 10,1 6 3 11 6 E 1021,2 21 0 0,0
25.11.2020 20:00:00 4,4 2,7 2,6 4,8 6,6 10,1 11 6 16 9 SSE 1020,9 26 0 0,0
25.11.2020 19:00:00 5,1 3,7 2,5 5,3 6,7 10,1 7 4 9 5 E 1020,6 19 0 0,0
25.11.2020 18:00:00 7,0 4,7 2,9 6,0 6,8 10,1 5 3 10 5 ESE 1020,1 34 0 0,0
25.11.2020 17:00:00 6,8 4,4 3,3 6,8 6,8 10,1 8 5 10 6 S 1019,7 28 0 0,0
25.11.2020 16:00:00 7,6 4,5 6,1 7,9 6,6 10,1 9 5 13 7 S 1019,4 30 43 0,0
25.11.2020 15:00:00 8,5 4,4 8,1 8,8 6,3 10,1 8 5 12 6 S 1019,5 33 58 0,0
25.11.2020 14:00:00 8,2 4,3 10,0 9,1 6,0 10,1 8 4 13 7 SSE 1019,5 37 60 0,0
25.11.2020 13:00:00 7,5 4,1 9,4 8,4 5,7 10,2 5 3 10 5 S 1019,8 29 60 0,0
25.11.2020 12:00:00 5,4 3,2 7,7 7,1 5,6 10,2 8 4 13 7 S 1020,4 21 60 0,0
25.11.2020 11:00:00 3,6 2,5 5,6 5,5 5,5 10,2 5 3 11 6 SSE 1021,1 12 54 0,0
25.11.2020 10:00:00 2,0 1,9 2,6 4,3 5,5 10,2 4 2 12 7 ESE 1021,2 0,4 11 0,0
25.11.2020 09:00:00 1,6 1,6 2,0 4,0 5,6 10,2 5 3 10 5 SSE 1021,0 0,1 0 0,0
25.11.2020 08:00:00 1,6 1,6 1,7 4,1 5,6 10,2 5 3 15 8 SE 1020,5 0,1 0 0,0
25.11.2020 07:00:00 1,9 1,9 2,0 4,2 5,7 10,2 5 3 12 7 ESE 1020,3 0,1 0 0,0
25.11.2020 06:00:00 2,2 2,2 2,4 4,3 5,7 10,2 5 3 15 8 ESE 1020,1 0,1 0 0,0
25.11.2020 05:00:00 2,4 2,4 2,6 4,4 5,7 10,2 8 5 15 8 E 1020,1 0,1 0 0,0
25.11.2020 04:00:00 2,5 2,5 2,8 4,5 5,8 10,2 8 5 16 9 E 1020,4 0,1 0 0,0
25.11.2020 03:00:00 2,7 2,7 2,9 4,6 5,8 10,2 9 5 18 10 E 1020,6 0,1 0 0,0
25.11.2020 02:00:00 2,9 2,8 3,1 4,6 5,8 10,2 7 4 16 8 SE 1020,9 0,1 0 0,0
25.11.2020 01:00:00 3,1 3,0 3,3 4,7 5,8 10,2 9 5 14 8 E 1021,4 0,1 0 0,0
25.11.2020 00:00:00 3,1 3,0 3,4 4,7 5,8 10,3 6 3 13 7 E 1021,8 0,1 0 0,0
24.11.2020 23:00:00 3,0 3,0 3,2 4,8 5,9 10,3 8 4 13 7 E 1022,2 0,2 0 0,0
24.11.2020 22:00:00 3,0 2,9 3,2 4,8 5,9 10,3 5 3 13 7 ESE 1022,5 0,1 0 0,0
24.11.2020 21:00:00 3,4 3,4 3,6 4,9 5,9 10,3 5 3 12 7 ESE 1022,7 0,1 0 0,0
24.11.2020 20:00:00 3,4 3,4 3,6 4,9 5,9 10,3 8 4 17 9 E 1022,9 0,3 0 0,0
24.11.2020 19:00:00 3,4 3,4 3,6 5,0 5,9 10,3 11 6 17 9 E 1023,0 1,8 0 0,0
24.11.2020 18:00:00 3,6 3,6 3,8 5,1 5,9 10,3 7 4 13 7 E 1023,2 0,3 0 0,0
24.11.2020 17:00:00 3,5 3,5 3,7 5,2 5,9 10,3 8 5 18 10 E 1023,2 0,3 0 0,0
24.11.2020 16:00:00 3,2 3,2 3,6 5,3 5,8 10,3 9 5 18 10 E 1023,7 0,1 0 0,0
24.11.2020 15:00:00 2,9 2,9 3,5 5,4 5,7 10,3 9 5 16 9 E 1024,3 0,1 0 0,0
24.11.2020 14:00:00 2,8 2,8 3,7 5,3 5,6 10,3 7 4 15 8 E 1024,8 0,1 0 0,0
24.11.2020 13:00:00 2,7 2,7 3,6 5,2 5,6 10,3 6 3 21 11 ESE 1025,5 0,1 0 0,0
24.11.2020 12:00:00 2,5 2,5 3,5 4,8 5,5 10,3 10 5 17 9 E 1026,3 0,1 0 0,0
24.11.2020 11:00:00 2,5 2,5 3,2 4,4 5,5 10,3 9 5 16 8 E 1026,9 0,1 0 0,0
24.11.2020 10:00:00 2,1 2,1 2,9 4,0 5,5 10,4 8 5 15 8 ENE 1027,0 0,1 0 0,0
24.11.2020 09:00:00 1,4 1,4 2,0 3,7 5,6 10,4 10 6 14 8 ENE 1027,2 0,1 0 0,0
24.11.2020 08:00:00 1,4 1,4 1,7 3,6 5,6 10,4 8 4 13 7 ENE 1027,3 0,1 0 0,0
24.11.2020 07:00:00 1,2 1,2 1,5 3,5 5,7 10,4 6 3 12 6 NE 1027,4 0,1 0 0,0
24.11.2020 06:00:00 0,9 0,9 1,1 3,6 5,9 10,4 8 5 11 6 NE 1027,6 0,1 0 0,0
24.11.2020 05:00:00 0,9 0,9 0,8 3,8 6,0 10,4 7 4 10 5 NE 1027,8 0,1 0 0,0
24.11.2020 04:00:00 1,5 1,5 1,4 4,0 6,1 10,4 8 4 9 5 NNE 1028,2 0,1 0 0,0
24.11.2020 03:00:00 2,0 2,0 1,7 4,1 6,2 10,4 6 3 10 6 NNE 1028,7 0,1 0 0,0
24.11.2020 02:00:00 3,6 3,6 2,4 4,4 6,3 10,4 7 4 11 6 E 1028,8 0,1 0 0,0
24.11.2020 01:00:00 4,0 4,0 3,0 4,7 6,4 10,4 9 5 11 6 E 1029,4 0,1 0 0,0
24.11.2020 00:00:00 4,2 4,2 3,8 5,0 6,5 10,4 8 4 15 8 NE 1029,6 0,1 0 0,0
23.11.2020 23:00:00 5,1 5,1 4,7 4,9 6,6 10,5 11 6 13 7 NNE 1029,9 0,1 0 0,0
23.11.2020 22:00:00 5,2 5,2 2,7 4,9 6,7 10,5 8 4 11 6 NE 1030,0 0,2 0 0,0
23.11.2020 21:00:00 5,1 5,1 1,7 5,5 6,8 10,5 8 4 10 5 NE 1030,4 2,0 0 0,0
23.11.2020 20:00:00 5,7 5,2 3,0 6,3 6,9 10,5 5 3 9 5 ESE 1030,2 7 0 0,0
23.11.2020 19:00:00 6,2 5,5 5,7 6,8 6,9 10,5 6 3 13 7 S 1030,0 8 0 0,0
23.11.2020 18:00:00 6,4 5,9 6,1 7,1 6,8 10,5 5 3 8 4 SSE 1030,1 8 0 0,0
23.11.2020 17:00:00 6,6 6,0 6,5 7,4 6,7 10,5 4 2 7 4 E 1030,1 10 0 0,0
23.11.2020 16:00:00 6,9 6,0 7,0 7,6 6,6 10,5 4 2 7 4 SE 1029,9 15 0 0,0
23.11.2020 15:00:00 6,6 5,8 7,3 7,6 6,4 10,6 6 4 11 6 NE 1030,0 14 0 0,0
23.11.2020 14:00:00 6,8 6,1 7,3 7,5 6,2 10,6 4 2 6 4 ENE 1030,1 11 0 0,0
23.11.2020 13:00:00 6,4 5,5 7,0 7,4 6,1 10,6 4 2 8 4 N 1030,5 12 0 0,0
23.11.2020 12:00:00 6,1 5,2 6,8 6,8 5,9 10,6 2 1 12 7 SSE 1030,6 14 0 0,0
23.11.2020 11:00:00 5,5 5,2 6,1 6,1 5,8 10,6 8 4 13 7 SW 1030,9 8 0 0,4
23.11.2020 10:00:00 4,9 4,5 5,3 5,4 5,8 10,6 11 6 14 8 SW 1030,7 5 0 0,0
23.11.2020 09:00:00 5,0 4,2 4,8 5,2 5,8 10,6 6 4 9 5 WSW 1030,2 4,8 0 0,1
23.11.2020 08:00:00 4,9 4,5 4,8 5,1 5,7 10,6 9 5 11 6 SW 1029,6 15 0 0,0
23.11.2020 07:00:00 4,8 4,0 4,6 5,1 5,7 10,7 9 5 17 9 WSW 1029,2 24 0 0,0
23.11.2020 06:00:00 4,9 4,6 4,8 5,0 5,7 10,7 14 7 22 12 W 1028,8 12 0 0,1
23.11.2020 05:00:00 5,3 4,2 4,9 5,0 5,7 10,7 15 8 21 12 W 1028,7 4,5 0 0,0
23.11.2020 04:00:00 5,3 2,8 5,2 4,9 5,6 10,7 12 7 16 9 WSW 1028,6 37 0 0,0
23.11.2020 03:00:00 5,4 3,0 5,2 4,9 5,6 10,7 7 4 13 7 WSW 1028,8 38 0 0,0
23.11.2020 02:00:00 5,3 2,5 5,1 4,8 5,6 10,7 10 6 18 10 WSW 1028,7 45 0 0,0
23.11.2020 01:00:00 5,3 2,3 5,1 4,8 5,6 10,8 13 7 19 10 WSW 1028,7 43 0 0,0
23.11.2020 00:00:00 5,0 2,3 4,8 4,8 5,6 10,8 12 6 16 9 SW 1028,7 41 0 0,0
22.11.2020 23:00:00 4,5 2,1 4,3 4,8 5,5 10,8 10 5 12 7 SW 1029,0 28 0 0,0
22.11.2020 22:00:00 4,8 2,3 4,6 4,8 5,5 10,8 9 5 15 8 SW 1029,1 35 0 0,0
22.11.2020 21:00:00 4,9 2,2 4,7 4,8 5,5 10,8 9 5 14 7 WSW 1029,2 39 0 0,0
22.11.2020 20:00:00 4,8 1,9 4,7 4,9 5,5 10,8 10 5 17 9 WSW 1029,2 39 0 0,0
22.11.2020 19:00:00 4,8 2,2 4,7 5,0 5,4 10,8 10 6 14 7 SW 1029,1 36 0 0,0
22.11.2020 18:00:00 4,6 2,6 4,6 5,1 5,3 10,9 8 5 13 7 WSW 1029,0 14 0 0,0
22.11.2020 17:00:00 4,8 2,6 4,8 5,3 5,2 10,9 6 3 9 5 WSW 1028,7 15 0 0,0
22.11.2020 16:00:00 5,0 2,5 5,1 5,5 5,0 10,9 4 2 10 5 SW 1028,6 23 0 0,0
22.11.2020 15:00:00 4,9 2,3 5,5 5,5 4,8 10,9 8 4 11 6 SW 1029,0 21 0 0,0
22.11.2020 14:00:00 4,9 2,0 6,1 5,1 4,6 10,9 6 3 8 5 SW 1029,5 19 0 0,0
22.11.2020 13:00:00 4,1 1,4 5,0 4,5 4,4 10,9 5 3 10 5 SW 1030,0 19 0 0,0
22.11.2020 12:00:00 3,8 1,0 5,1 3,7 4,2 10,9 6 3 8 5 SSW 1030,5 21 0 0,0
22.11.2020 11:00:00 3,3 0,5 4,2 2,6 4,2 11,0 6 3 15 8 WSW 1030,9 30 0 0,0
22.11.2020 10:00:00 2,4 0,2 2,7 1,9 4,2 11,0 11 6 15 8 WSW 1031,1 25 0 0,0
22.11.2020 09:00:00 2,3 -0,4 1,9 1,7 4,3 11,0 8 4 13 7 WSW 1031,1 31 0 0,0
22.11.2020 08:00:00 1,7 -0,3 0,9 1,6 4,3 11,0 10 5 16 8 WSW 1031,1 33 0 0,0
22.11.2020 07:00:00 1,4 -1,0 0,3 1,6 4,4 11,0 11 6 14 8 WSW 1031,3 26 0 0,0
22.11.2020 06:00:00 0,9 -1,2 -0,6 1,6 4,4 11,0 9 5 12 6 WSW 1031,3 25 0 0,0
22.11.2020 05:00:00 -0,7 -1,7 -2,0 1,6 4,5 11,0 9 5 13 7 SW 1031,4 9 0 0,0
22.11.2020 04:00:00 -0,5 -1,8 -2,0 1,7 4,6 11,0 6 4 9 5 WSW 1031,6 14 0 0,0
22.11.2020 03:00:00 0,8 -1,6 -1,5 1,7 4,7 11,1 5 3 9 5 W 1031,3 20 0 0,0
22.11.2020 02:00:00 0,7 -1,5 -1,6 1,8 4,8 11,1 8 4 10 6 SW 1031,6 19 0 0,0
22.11.2020 01:00:00 0,9 -1,3 -1,0 1,8 4,9 11,1 8 5 11 6 SW 1031,7 24 0 0,0
22.11.2020 00:00:00 1,0 -1,8 -1,2 1,8 5,1 11,1 10 5 13 7 WSW 1032,2 29 0 0,0
21.11.2020 23:00:00 1,3 -1,9 -1,1 1,8 5,2 11,1 9 5 13 7 WSW 1032,3 41 0 0,0
21.11.2020 22:00:00 1,2 -1,5 -1,3 2,1 5,4 11,1 10 5 13 7 WSW 1032,8 42 0 0,0
21.11.2020 21:00:00 1,0 -0,6 -1,2 2,5 5,6 11,1 11 6 13 7 SW 1033,1 29 0 0,0
21.11.2020 20:00:00 1,2 -0,3 -1,0 2,9 5,7 11,1 11 6 16 8 SSW 1033,4 25 0 0,0
21.11.2020 19:00:00 1,5 0,1 -0,5 3,4 5,8 11,2 10 6 13 7 SSW 1033,3 21 0 0,0
21.11.2020 18:00:00 2,6 0,2 0,3 4,1 5,9 11,2 9 5 12 7 S 1033,1 27 0 0,0
21.11.2020 17:00:00 3,1 0,3 0,6 5,0 5,8 11,2 7 4 9 5 SW 1033,1 33 26 0,0
21.11.2020 16:00:00 5,0 -0,2 3,7 5,9 5,6 11,2 6 4 10 6 SSW 1032,9 43 60 0,0
21.11.2020 15:00:00 5,8 -0,4 8,0 6,7 5,2 11,2 6 3 11 6 WSW 1033,3 68 60 0,0
21.11.2020 14:00:00 4,7 0,8 6,9 6,6 4,9 11,2 4 2 8 4 SW 1034,0 26 60 0,0
21.11.2020 13:00:00 4,0 0,5 6,9 4,9 4,8 11,2 4 2 16 9 SW 1034,6 23 60 0,0
21.11.2020 12:00:00 1,2 -0,4 2,9 3,0 4,8 11,2 9 5 14 8 SSW 1035,5 19 48 0,0
21.11.2020 11:00:00 0,1 0,0 0,8 1,8 4,9 11,2 6 3 10 5 SSW 1036,2 0,4 8 0,0
21.11.2020 10:00:00 -0,5 -0,5 -0,4 1,7 4,9 11,2 5 3 12 7 S 1036,4 0,2 0 0,0
21.11.2020 09:00:00 -1,9 -1,9 -1,5 1,7 5,0 11,2 3 2 6 3 S 1036,9 0,6 0 0,0
21.11.2020 08:00:00 -2,6 -2,6 -2,8 1,8 5,1 11,3 2 1 6 3 E 1037,0 0,2 0 0,0
21.11.2020 07:00:00 -0,8 -1,0 -2,6 1,8 5,2 11,3 5 3 9 5 S 1036,5 6 0 0,0
21.11.2020 06:00:00 -1,4 -1,5 -3,1 1,9 5,4 11,3 6 3 9 5 S 1036,5 3,4 0 0,0
21.11.2020 05:00:00 -0,7 -1,0 -3,0 1,9 5,5 11,3 6 4 9 5 S 1036,6 11 0 0,0
21.11.2020 04:00:00 0,2 -1,0 -1,7 2,0 5,6 11,3 7 4 8 4 SSE 1036,5 21 0 0,0

tt = Température de l'air
td = dewpoint
tt 5cm = Température de l'air 5cm
tt -5cm = Température de l'air -5cm
tt -20cm = Température de l'air -20cm
tt -100cm = Température de l'air -100cm
ff = Vitesse du vent
fx = gusts
dd = Direction du vent
ppp = reduced air pressure
vv = visibility
sd = Ensoleillement
rr = Quantités de précipitations

stations d'obs. à proximité